Simultaneous Nadir Overpasses (SNOs) Predictions

Prediction of SNOs between GOES-14 and NPP Satellite Orbit:

Table of predicted SNOs for the next 14.0 days since TLE Epoch: 2/26/2022
Index Date Time (GOES-14) GOES-14 Lat,Lon NPP Lat,Lon Distance(km) Time Diff (sec)
1 02/26/2022 08:24:07 0.07,-104.60 0.16,-105.01 46.68 80
2 02/27/2022 08:08:03 0.07,-104.61 -0.86,-100.48 470.18 80
3 02/28/2022 20:29:58 -0.07,-104.40 -0.40,-105.77 157.63 80
4 03/01/2022 20:08:34 -0.07,-104.39 0.61,-101.24 358.18 80
5 03/03/2022 08:30:23 0.07,-104.60 0.50,-106.53 219.53 80
6 03/04/2022 08:14:19 0.07,-104.61 -0.51,-102.00 297.95 80
7 03/05/2022 20:36:14 -0.07,-104.43 -0.74,-107.29 326.60 80
8 03/06/2022 20:14:49 -0.07,-104.43 0.28,-102.76 189.49 80
9 03/08/2022 08:36:39 0.07,-104.62 0.83,-108.05 390.47 80
10 03/09/2022 08:20:34 0.08,-104.63 -0.19,-103.52 127.13 80
11 03/10/2022 20:42:30 -0.08,-104.47 -1.06,-108.81 494.87 80
12 03/11/2022 20:21:05 -0.08,-104.47 -0.04,-104.28 21.00 80
